Regional Weather Roundup
Issued by NWS

Home | Current Version | Previous Version | Graphics & Text | Print | Product List | Glossary On
Versions: 1 2 3 4 5 6 7 8 9 10 11 12 13 14 15 16 17 18 19 20 21 22 23 24 25 26 27 28 29 30 31 32 33 34 35 36 37 38 39 40 41 42 43 44 45 46 47 48 49 50
000
ASUS43 KLOT 230502
RWRIL

ILLINOIS REGIONAL WEATHER ROUNDUP
NATIONAL WEATHER SERVICE CHICAGO/ROMEOVILLE IL
1200 AM CDT THU MAR 23 2017

NOTE: "FAIR" INDICATES FEW OR NO CLOUDS BELOW 12,000 FEET WITH NO
SIGNIFICANT WEATHER AND/OR OBSTRUCTIONS TO VISIBILITY.

* THESE STATIONS ARE NOT UNDER NWS QUALITY CONTROL. THEY ALSO MAY NOT
  REPORT WEATHER SUCH AS PRECIPITATION OR FOG.

ILZ001-002-007-009-015-016-024-230600-
NORTHWEST ILLINOIS

CITY           SKY/WX    TMP DP  RH WIND       PRES   REMARKS
MOLINE         CLOUDY    35  20  54 SE9       30.39F WCI  28
STERLING*      CLOUDY    33  20  58 E13       30.43S WCI  24
SAVANNA*       CLOUDY    35  19  52 SE13G20   30.41S WCI  26
$$

ILZ003-004-008-010-011-017-018-230600-
NORTH CENTRAL ILLINOIS

CITY           SKY/WX    TMP DP  RH WIND       PRES   REMARKS
ROCKFORD       CLOUDY    30  18  60 E9        30.46F WCI  22
FREEPORT*      CLOUDY    29  19  64 E14       30.44S WCI  19
ROCHELLE*      CLOUDY    30  20  65 E12       30.44F WCI  20
DE KALB*       CLOUDY    28  20  71 E10       30.45F WCI  19
PERU*          CLEAR     31  21  67 SE7       30.45S WCI  24
$$

ILZ005-006-012>014-019>023-230600-
NORTHEAST ILLINOIS

CITY           SKY/WX    TMP DP  RH WIND       PRES   REMARKS
CHICAGO-OHARE  PTCLDY    31  20  63 NE3       30.48R
CHICAGO-MIDWAY PTCLDY    32  24  72 VRB6      30.48S WCI  26
AURORA         CLOUDY    30  21  69 E7        30.46F WCI  23
LANSING*       CLEAR     29  24  82 E3        30.48S
JOLIET*        CLOUDY    30  24  76 E3        30.48S
WAUKEGAN       CLEAR     22  19  89 CALM      30.48S
DUPAGE AIRPORT CLOUDY    29  21  72 E5        30.46F WCI  24
KANKAKEE*      CLEAR     26  22  84 CALM      30.47S
WHEELING       CLEAR     26  21  81 CALM      30.50R
MORRIS*        CLOUDY    30  23  75 E6        30.46S WCI  24
NORTHERLY ISL    N/A     32  25  76 E9          N/A  WCI  24
$$

LMZ740>746-230600-
SOUTHERN LAKE MICHIGAN

STATION/POSITION SKY/WX   TEMP    WIND        PRES    VSBY  WAVE
                          AIR SEA DIR/SP/G                  HT/PER
                          (F)     (DEG/KT/KT) (MB)    (MI)  (FT/S)
HARRISON CRIB              34     100/ 10/ 11   N/A
BURNHAM HARBOR             33      90/  6/  9   N/A
CALUMET HARBOR             33      70/  7/  9 1031.4R
BURNS HARBOR               29      80/  8/  9 1032.5R
MICHIGAN CITY              28      70/  5/  6   N/A
$$

ILZ025>027-034>036-040-047-049-050-058-095>099-230600-
WEST-CENTRAL ILLINOIS

CITY           SKY/WX    TMP DP  RH WIND       PRES   REMARKS
QUINCY         PTCLDY    40  16  37 SE15      30.34F
GALESBURG*     CLOUDY    35  23  61 E10         N/A  WCI  27
MACOMB*        CLOUDY    36  22  56 E15       30.39F WCI  27
JACKSONVILLE*  CLOUDY    36  20  53 E12       30.38F WCI  27
PITTSFIELD*    PTCLDY    39  18  41 E9        30.35F WCI  33
$$

ILZ028>032-037-038-041>044-048-051>054-059>061-230600-
CENTRAL ILLINOIS

CITY           SKY/WX    TMP DP  RH WIND       PRES   REMARKS
PONTIAC        CLEAR     30  26  85 E8        30.45F WCI  23
BLOOMINGTON    CLEAR     29  22  75 E9        30.44S WCI  20
DECATUR        CLOUDY    32  21  64 E7        30.42S WCI  26
PEORIA         CLOUDY    35  21  56 SE8       30.41F WCI  29
LACON*         CLOUDY    31  24  74 E6        30.43S WCI  26
LINCOLN*       CLOUDY    36  24  60 E10       30.42S WCI  29
SPRINGFIELD    PTCLDY    39  21  48 E10       30.41S WCI  32
TAYLORVILLE    CLOUDY    36  21  55 E10       30.40F WCI  28
$$

ILZ033-039-045-046-055>057-062-063-230600-
EAST-CENTRAL ILLINOIS

CITY           SKY/WX    TMP DP  RH WIND       PRES   REMARKS
CHAMPAIGN      CLEAR     32  21  64 E12       30.42F WCI  23
RANTOUL*       CLEAR     32  26  76 E8        30.44S WCI  25
MATTOON        CLOUDY    34  21  59 E8        30.40S WCI  27
PARIS*         CLEAR     32  24  72 E8        30.44F WCI  25
$$

ILZ079-100>102-230600-
SOUTHWEST ILLINOIS

CITY           SKY/WX    TMP DP  RH WIND       PRES   REMARKS
ALTON          PTCLDY    38  20  48 E7        30.37F WCI  33
BELLEVILLE     PTCLDY    40  22  48 E6        30.36F
CAHOKIA*       PTCLDY    43  19  38 E8        30.36F
SPARTA*        CLOUDY    41  23  49 E8        30.38F
$$

ILZ064>066-069>071-074>076-080>082-084>086-088>090-092>094-230600-
SOUTH-CENTRAL ILLINOIS

CITY           SKY/WX    TMP DP  RH WIND       PRES   REMARKS
CARBONDALE     PTCLDY    42  23  46 E6        30.38R
CAIRO*         CLOUDY    42  29  60 NE7       30.35F
EFFINGHAM*     CLEAR     37  24  57 E5        30.43R WCI  34
MARION         CLOUDY    43  21  42 E6        30.38S
MT. VERNON     CLOUDY    37  21  52 NE7       30.40R WCI  32
CENTRALIA*     CLOUDY    40  24  52 E5        30.39S
SALEM*         CLOUDY    41  22  47 E5        30.40S
METROPOLIS*    CLEAR     42  24  47 CALM      30.37S
$$

ILZ067-068-072-073-078-083-087-091-230600-
SOUTHEAST ILLINOIS

CITY           SKY/WX    TMP DP  RH WIND       PRES   REMARKS
LAWRENCEVILLE  CLEAR     35  20  54 E7        30.42F WCI  29
FLORA*         CLEAR     39  22  50 E6        30.41S WCI  35
FAIRFIELD*     CLEAR     39  22  50 NE6       30.39F WCI  34
HARRISBURG*    CLEAR     40  24  52 E9        30.39R
ROBINSON*      CLEAR     34  21  58 E7        30.44F WCI  28
CARMI*         CLEAR     38  23  55 E8        30.39F WCI  32
$$

ABBREVIATIONS USED IN REMARKS
   TC - TEMPERATURE IN CELSIUS
  WCI - WIND CHILL INDEX
   HX - HEAT INDEX
  VSB - VISIBILITY
$$




USA.gov is the U.S. government's official web portal to all federal, state and local government web resources and services.